Tracking 18840 objects as of 20-November-2017
HD Live streaming from Space Station
objects crossing your sky now

IRIDIUM 45

Track IRIDIUM 45 now!
10-day predictions
IRIDIUM 45 is classified as:


NORAD ID: 25104
Int'l Code: 1997-082A
Perigee: 783.1 km
Apogee: 786.5 km
Inclination: 86.4 °
Period: 100.4 minutes
Semi major axis: 7155 km
RCS: 3.9041 m2 (large)
Launch date: December 20, 1997
Source: United States (US)
Launch site: AIR FORCE WESTERN TEST RANGE (AFWTR)
aabbcc
Your satellite tracking list
Your tracking list is empty




NASA's NSSDC Master Catalog

Two Line Element Set (TLE):
1 25104U 97082A   17323.64569418  .00000246  00000-0  80790-4 0  9997
2 25104  86.3998 222.2176 0002438 102.7434 257.4034 14.34219589 42655
Source of the keplerian elements: AFSPC